EN

Hourly Weather Tlamacazapa

Today, 23 April, Friday

Time Temperature Precipitation Wind Pressure Humidity
00:00 +20°C° 0 mm 1 mps 616 mmHg 25%
01:00 +20°C° 0 mm 1 mps 615 mmHg 26%
02:00 +20°C° 0 mm 1 mps 615 mmHg 27%
03:00 +19°C° 0 mm 1 mps 615 mmHg 28%
04:00 +18°C° 0 mm 1 mps 615 mmHg 29%
05:00 +18°C° 0 mm 1 mps 615 mmHg 29%
06:00 +20°C° 0 mm 1 mps 616 mmHg 26%
07:00 +22°C° 0 mm 1 mps 617 mmHg 22%
08:00 +23°C° 0 mm 0 mps 618 mmHg 19%
09:00 +27°C° 0 mm 1 mps 619 mmHg 17%
10:00 +29°C° 0 mm 1 mps 619 mmHg 14%
11:00 +31°C° 0 mm 2 mps 619 mmHg 12%
12:00 +31°C° 0 mm 2 mps 618 mmHg 12%
13:00 +32°C° 0 mm 2 mps 618 mmHg 12%
14:00 +33°C° 0 mm 3 mps 617 mmHg 12%
15:00 +31°C° 0 mm 3 mps 617 mmHg 12%
16:00 +31°C° 0 mm 3 mps 616 mmHg 13%
17:00 +30°C° 0 mm 4 mps 616 mmHg 13%
18:00 +27°C° 0 mm 3 mps 616 mmHg 16%
19:00 +25°C° 0 mm 2 mps 616 mmHg 18%
20:00 +23°C° 0 mm 2 mps 615 mmHg 21%
21:00 +22°C° 0 mm 1 mps 615 mmHg 23%
22:00 +21°C° 0 mm 1 mps 615 mmHg 25%
23:00 +20°C° 0 mm 1 mps 615 mmHg 27%

Tomorrow, 24 April, Saturday

Time Temperature Precipitation Wind Pressure Humidity
00:00 +20°C° 0 mm 1 mps 615 mmHg 29%
01:00 +19°C° 0 mm 1 mps 615 mmHg 30%
02:00 +19°C° 0 mm 1 mps 614 mmHg 31%
03:00 +18°C° 0 mm 1 mps 614 mmHg 32%
04:00 +18°C° 0 mm 1 mps 615 mmHg 33%
05:00 +18°C° 0 mm 1 mps 615 mmHg 34%
06:00 +20°C° 0 mm 1 mps 616 mmHg 31%
07:00 +22°C° 0 mm 1 mps 617 mmHg 27%
08:00 +25°C° 0 mm 1 mps 618 mmHg 24%
09:00 +27°C° 0 mm 1 mps 618 mmHg 21%
10:00 +29°C° 0 mm 1 mps 619 mmHg 18%
11:00 +31°C° 0 mm 2 mps 619 mmHg 15%
12:00 +32°C° 0 mm 2 mps 618 mmHg 14%
13:00 +34°C° 0 mm 2 mps 618 mmHg 13%
14:00 +34°C° 0 mm 2 mps 617 mmHg 12%
15:00 +32°C° 0 mm 2 mps 617 mmHg 13%
16:00 +32°C° 0 mm 2 mps 616 mmHg 14%
17:00 +31°C° 0 mm 2 mps 616 mmHg 15%
18:00 +28°C° 0 mm 2 mps 616 mmHg 18%
19:00 +26°C° 0 mm 2 mps 615 mmHg 22%
20:00 +23°C° 0 mm 2 mps 615 mmHg 25%
21:00 +22°C° 0 mm 1 mps 615 mmHg 28%
22:00 +22°C° 0 mm 1 mps 616 mmHg 30%
23:00 +21°C° 0 mm 1 mps 616 mmHg 32%

Day after tomorrow, 25 April, Sunday

Time Temperature Precipitation Wind Pressure Humidity
00:00 +20°C° 0 mm 1 mps 615 mmHg 34%
01:00 +20°C° 0 mm 1 mps 615 mmHg 37%
02:00 +19°C° 0 mm 1 mps 615 mmHg 39%
03:00 +18°C° 0 mm 1 mps 615 mmHg 40%
04:00 +18°C° 0 mm 1 mps 615 mmHg 41%
05:00 +18°C° 0 mm 1 mps 615 mmHg 42%
06:00 +20°C° 0 mm 1 mps 616 mmHg 37%
07:00 +23°C° 0 mm 1 mps 618 mmHg 32%
08:00 +26°C° 0 mm 1 mps 619 mmHg 27%
09:00 +28°C° 0 mm 1 mps 619 mmHg 24%
10:00 +30°C° 0 mm 1 mps 619 mmHg 21%
11:00 +32°C° 0 mm 1 mps 620 mmHg 18%
12:00 +34°C° 0 mm 2 mps 619 mmHg 17%
13:00 +34°C° 0 mm 2 mps 618 mmHg 17%
14:00 +35°C° 0 mm 2 mps 618 mmHg 16%
15:00 +34°C° 0 mm 2 mps 617 mmHg 17%
16:00 +32°C° 0 mm 2 mps 617 mmHg 18%
17:00 +31°C° 0 mm 2 mps 616 mmHg 19%
18:00 +29°C° 0 mm 2 mps 616 mmHg 23%
19:00 +27°C° 0 mm 2 mps 616 mmHg 26%
20:00 +24°C° 0 mm 2 mps 616 mmHg 30%
21:00 +24°C° 0 mm 1 mps 616 mmHg 32%
22:00 +24°C° 0 mm 1 mps 617 mmHg 34%
23:00 +23°C° 0 mm 1 mps 617 mmHg 35%

26 April, Monday

Time Temperature Precipitation Wind Pressure Humidity
00:00 +23°C° 0 mm 1 mps 617 mmHg 38%
01:00 +22°C° 0 mm 1 mps 616 mmHg 40%
02:00 +21°C° 0 mm 1 mps 616 mmHg 42%
03:00 +21°C° 0 mm 1 mps 616 mmHg 44%
04:00 +20°C° 0 mm 1 mps 616 mmHg 47%
05:00 +19°C° 0 mm 1 mps 616 mmHg 49%
06:00 +22°C° 0 mm 1 mps 617 mmHg 42%
07:00 +24°C° 0 mm 1 mps 618 mmHg 36%
08:00 +27°C° 0 mm 1 mps 619 mmHg 30%
09:00 +29°C° 0 mm 1 mps 619 mmHg 27%
10:00 +31°C° 0 mm 1 mps 619 mmHg 24%
11:00 +34°C° 0 mm 2 mps 619 mmHg 21%
12:00 +34°C° 0 mm 2 mps 619 mmHg 19%
13:00 +35°C° 0 mm 2 mps 618 mmHg 18%
14:00 +35°C° 0 mm 2 mps 617 mmHg 17%
15:00 +35°C° 0 mm 3 mps 617 mmHg 17%
16:00 +34°C° 0 mm 3 mps 616 mmHg 17%
17:00 +33°C° 0 mm 3 mps 616 mmHg 17%
18:00 +29°C° 0 mm 3 mps 616 mmHg 20%
19:00 +27°C° 0 mm 2 mps 616 mmHg 23%
20:00 +24°C° 0 mm 2 mps 616 mmHg 26%
21:00 +23°C° 0 mm 2 mps 616 mmHg 29%
22:00 +22°C° 0 mm 1 mps 616 mmHg 32%
23:00 +21°C° 0 mm 1 mps 616 mmHg 35%

27 April, Tuesday

Time Temperature Precipitation Wind Pressure Humidity
00:00 +21°C° 0 mm 1 mps 616 mmHg 36%
01:00 +20°C° 0 mm 1 mps 615 mmHg 37%
02:00 +20°C° 0 mm 1 mps 615 mmHg 39%
03:00 +19°C° 0 mm 1 mps 615 mmHg 40%
04:00 +19°C° 0 mm 1 mps 615 mmHg 41%
05:00 +18°C° 0 mm 1 mps 615 mmHg 42%
06:00 +21°C° 0 mm 1 mps 616 mmHg 36%
07:00 +23°C° 0 mm 1 mps 618 mmHg 31%
08:00 +26°C° 0 mm 1 mps 619 mmHg 25%
09:00 +28°C° 0 mm 1 mps 619 mmHg 22%
10:00 +30°C° 0 mm 1 mps 619 mmHg 19%
11:00 +32°C° 0 mm 2 mps 619 mmHg 16%
12:00 +34°C° 0 mm 2 mps 618 mmHg 15%
13:00 +35°C° 0 mm 2 mps 618 mmHg 14%
14:00 +36°C° 0 mm 3 mps 617 mmHg 14%
15:00 +35°C° 0 mm 3 mps 616 mmHg 14%
16:00 +34°C° 0 mm 3 mps 616 mmHg 14%
17:00 +33°C° 0 mm 3 mps 615 mmHg 15%
18:00 +29°C° 0 mm 3 mps 615 mmHg 18%
19:00 +27°C° 0 mm 2 mps 615 mmHg 22%
20:00 +24°C° 0 mm 2 mps 615 mmHg 26%
21:00 +23°C° 0 mm 2 mps 615 mmHg 29%
22:00 +22°C° 0 mm 1 mps 615 mmHg 32%
23:00 +21°C° 0 mm 1 mps 615 mmHg 35%

28 April, Wednesday

Time Temperature Precipitation Wind Pressure Humidity
00:00 +20°C° 0 mm 1 mps 615 mmHg 36%
01:00 +19°C° 0 mm 1 mps 615 mmHg 38%
02:00 +19°C° 0 mm 1 mps 614 mmHg 39%
03:00 +18°C° 0 mm 1 mps 614 mmHg 40%
04:00 +18°C° 0 mm 1 mps 615 mmHg 40%
05:00 +16°C° 0 mm 1 mps 615 mmHg 41%
06:00 +20°C° 0 mm 1 mps 616 mmHg 36%
07:00 +23°C° 0 mm 1 mps 617 mmHg 30%
08:00 +26°C° 0 mm 1 mps 618 mmHg 25%
09:00 +28°C° 0 mm 1 mps 618 mmHg 22%
10:00 +30°C° 0 mm 2 mps 619 mmHg 19%
11:00 +32°C° 0 mm 2 mps 619 mmHg 16%
12:00 +34°C° 0 mm 3 mps 618 mmHg 15%
13:00 +35°C° 0 mm 3 mps 617 mmHg 14%
14:00 +35°C° 0 mm 4 mps 617 mmHg 13%
15:00 +34°C° 0 mm 4 mps 616 mmHg 14%
16:00 +33°C° 0 mm 4 mps 616 mmHg 14%
17:00 +32°C° 0 mm 4 mps 615 mmHg 15%
18:00 +28°C° 0 mm 3 mps 615 mmHg 18%
19:00 +26°C° 0 mm 2 mps 615 mmHg 22%
20:00 +23°C° 0 mm 2 mps 615 mmHg 25%
21:00 +21°C° 0 mm 2 mps 615 mmHg 28%
22:00 +21°C° 0 mm 1 mps 615 mmHg 31%
23:00 +20°C° 0 mm 1 mps 615 mmHg 33%
Show more

We Need Your Consent

Meteoprog and our Service Providers may store and access personal data such as cookies, device identifiers or other similar technologies on your device and process such data to personalise content and ads, as well as provide social media features and to analyse the traffic.

  • Store and/or access information on your device

    Cookies, device identifiers or other information can be stored or accessed on your device for the purposes indicated above.

  • Personalised ads and content, ad and content measurement, audience insights, and products development

    Ads and content can be personalised based on a profile. More data can be added to better personalise ads and content. Ad and content performance can be measured. Insights about the audience who saw the ads and content can be derived. Such data can be used to develop or improve user’s experience, systems and software.

By clicking ‘I Agree’ you will allow the use of indicated cookies, device identifiers, web beacons or other similar technologies. Your settings can be changed in the browser on your device.

For certain purposes, legitimate interests may be relied on, rather than consent. You can read more about this in our Privacy and Cookie Policy.